Regional Weather Roundup
Issued by NWS Green Bay, WI

Home | Current Version | Previous Version | Text Only | Print | Product List | Glossary On
Versions: 1 2 3 4 5 6 7 8 9 10 11 12 13 14 15 16 17 18 19 20 21 22 23 24 25 26 27 28 29 30 31 32 33 34 35 36 37 38 39 40 41 42 43 44 45 46 47 48 49 50
000
ASUS43 KGRB 172010
RWRGRB

NORTH-CENTRAL AND NORTHEAST WISCONSIN REGIONAL WEATHER ROUNDUP
NATIONAL WEATHER SERVICE GREEN BAY WI
300 PM CDT WED SEP 17 2014

WIZ005-009-010>012-018-019-172100-
NORTH CENTRAL WISCONSIN

CITY           SKY/WX    TMP DP  RH WIND       PRES   REMARKS
IRONWOOD       CLOUDY    50  46  87 N10       29.98R
MANITOWISH WTR PTSUNNY   68  48  48 N7        29.94S
ARBOR VITAE    MOSUNNY   69  47  44 W7        29.94F
EAGLE RIVER    MOSUNNY   68  42  38 W10       29.93F
LAND O LAKES   MOSUNNY   65  49  55 N10       29.95S
RHINELANDER    SUNNY     68  44  42 NW9       29.96S
PHILLIPS       PTSUNNY   67  48  51 CALM      29.95S
ANTIGO         MOSUNNY   67  48  50 NW10G17   29.95S
TOMAHAWK       PTSUNNY   69  47  45 W9        29.95F
MERRILL        CLOUDY    68  49  49 W10       29.95S
$$

WIZ013-073-172100-
NORTHEAST WISCONSIN

CITY           SKY/WX    TMP DP  RH WIND       PRES   REMARKS
IRON MOUNTAIN  PTSUNNY   69  43  38 NW8       29.91S
MARINETTE      MOSUNNY   70  46  43 W6        29.91S
OCONTO         MOSUNNY   71  49  46 W8        29.93R
$$

WIZ017-030-035>037-045-172100-
CENTRAL WISCONSIN

CITY           SKY/WX    TMP DP  RH WIND       PRES   REMARKS
MEDFORD        MOSUNNY   65  49  55 NW5       29.96S
WAUSAU         CLOUDY    67  48  50 NW10      29.94S
MOSINEE        PTSUNNY   70  52  52 W12G18    29.97S
MARSHFIELD     MOSUNNY   70  51  51 W6        29.96F
WISC RAPIDS    SUNNY     70  47  43 W3        29.98S
STEVENS POINT  MOSUNNY   67  48  50 W10       29.97S
WAUPACA        MOSUNNY   73  48  42 W9        29.96S
SHAWANO        MOSUNNY   71  49  45 W5        29.94S
CLINTONVILLE   MOSUNNY   70  46  43 W7        29.95R
$$

WIZ038-039-048-051-172100-
FOX VALLEY

CITY           SKY/WX    TMP DP  RH WIND       PRES   REMARKS
NWS GREEN BAY  PTSUNNY   68  49  50 SW10      29.95S
APPLETON       PTSUNNY   66  45  45 W10       29.96F
OSHKOSH        MOSUNNY   69  50  50 SW8       29.96F
FOND DU LAC    CLOUDY    68  48  48 SW7       29.97F
$$

WIZ022-050-052-172100-
EAST CENTRAL WISCONSIN

CITY           SKY/WX    TMP DP  RH WIND       PRES   REMARKS
STURGEON BAY   MOSUNNY   66  48  52 W7        29.94F
MANITOWOC      PTSUNNY   68  48  48 W10       29.96F
SHEBOYGAN      MOSUNNY   69  46  43 W12       29.97F
$$

LMZ563-521-522-541>543-172100-
LAKESHORE

STATION/POSITION TIME  TEMP    WIND        PRES    VSBY  WAVE
                       AIR SEA DIR/SP/G                  HT/PER
                 (UTC) (F)     (DEG/KT/KT) (MB)    (MI)  (FT/S)
SHEBOYGAN LKSHOR 2000   59 48  150/ 13/ 14 1015.3F
KEWAUNEE LKSHORE 2000   57     170/ 11/ 13 1013.3F
NORTHPORT PIER   2000   68     110/  3/  8 1013.2F
N MID LAKE BUOY  2000   58 59  210/ 14/ 16 1013.6S         2/ 3
S GREEN BAY BUOY 2000   63     VRB  8/ 10  1014.6F
SISTER BAY LKSHO 2000          280/  7/  8   N/A
CHAMBERS ISLAND  2000   65     180/  5/ 14 1013.5S
MENOMINEE LKSHOR 2000   63     170/ 10/ 14 1013.7F
$$


USA.gov is the U.S. government's official web portal to all federal, state and local government web resources and services.